KI2K Weather Reports


time (UTC)temp
F
wind
direction
speed
knots
gust
knots
rain 1hr
in
rain 24hr
in
rain mn
in
humidity
%
barometer
mb
20260906080130 71 316 0.9 0.9 0.00 0.00 0.00 91 1013.6
20260906075624 72 315 0.9 0.9 0.00 0.00 0.00 91 1013.2
20260906075119 72 306 0.0 0.9 0.00 0.00 0.00 92 1013.2
20260906074615 73 309 0.0 0.9 0.00 0.00 0.00 93 1013.3
20260906074113 73 174 1.7 2.6 0.00 0.00 0.00 93 1013.1
20260906073608 73 269 0.0 0.9 0.00 0.00 0.00 94 1013.2
20260906073104 73 299 0.0 0.0 0.00 0.00 0.00 94 1013.3
20260906072559 73 36 0.9 1.7 0.00 0.00 0.00 94 1013.4
20260906072055 73 280 0.0 0.0 0.00 0.00 0.00 94 1013.3
20260906071551 73 220 0.0 0.9 0.00 0.00 0.00 94 1013.3
20260906071045 73 277 0.9 0.9 0.00 0.00 0.00 94 1013.2
20260906070542 73 285 0.9 1.7 0.00 0.00 0.00 95 1013.2
20260906070037 73 278 0.0 0.9 0.00 0.00 0.00 95 1013.2
20260906065537 73 273 0.0 0.0 0.00 0.00 0.00 95 1013.4
20260906065032 73 288 0.0 0.0 0.00 0.00 0.00 95 1013.2
20260906064528 73 283 0.0 0.9 0.00 0.00 0.00 95 1013.3
20260906064023 73 278 0.0 0.0 0.00 0.00 0.00 95 1013.3
20260906063518 74 277 0.0 0.0 0.00 0.00 0.00 95 1013.2
20260906063015 74 277 0.0 0.0 0.00 0.00 0.00 95 1013.2
20260906062509 74 308 0.9 0.9 0.00 0.00 0.00 95 1013.3
20260906062003 74 282 0.9 0.9 0.00 0.00 0.00 95 1013.4
20260906061459 74 283 0.0 0.0 0.00 0.00 0.00 94 1013.1
20260906060954 74 293 0.0 0.0 0.00 0.00 0.00 94 1013.2
20260906060451 74 340 0.9 0.9 0.00 0.00 0.00 94 1013.3
20260906055947 75 282 0.0 0.0 0.00 0.00 0.00 94 1013.2
20260906055443 75 282 0.0 0.0 0.00 0.00 0.00 94 1013.2
20260906054938 75 286 0.0 0.9 0.00 0.00 0.00 93 1013.1
20260906054432 75 295 0.9 0.9 0.00 0.00 0.00 93 1013.1
20260906053928 75 283 0.0 0.0 0.00 0.00 0.00 93 1012.8
20260906053424 75 279 0.0 0.0 0.00 0.00 0.00 93 1012.9
20260906052920 75 275 0.0 0.0 0.00 0.00 0.00 93 1012.8
20260906052416 75 280 0.0 0.0 0.00 0.00 0.00 93 1012.9
20260906051913 75 279 0.0 0.9 0.00 0.00 0.00 93 1012.9
20260906051413 75 277 0.0 0.9 0.00 0.00 0.00 94 1012.9
20260906050908 75 288 0.0 0.0 0.00 0.00 0.00 94 1013.2
20260906050403 75 284 0.0 0.9 0.00 0.00 0.00 94 1013.0
20260906045902 75 266 0.0 0.0 0.00 0.00 0.00 94 1013.1
20260906045401 75 281 0.0 0.9 0.00 0.00 0.00 94 1013.2
20260906044857 75 137 0.9 1.7 0.00 0.00 0.00 94 1013.0
20260906044352 75 282 0.0 0.0 0.00 0.00 0.00 94 1012.7
20260906043848 75 291 0.0 0.9 0.00 0.00 0.00 93 1012.7
20260906043343 75 287 0.0 0.9 0.00 0.00 0.00 93 1012.8
20260906042839 76 66 2.6 2.6 0.00 0.00 0.00 93 1012.7
20260906042337 76 98 0.9 1.7 0.00 0.00 0.00 93 1012.6
20260906041833 76 177 0.9 0.9 0.00 0.00 0.00 92 1012.6
20260906041329 76 62 0.9 0.9 0.00 0.00 0.00 92 1012.5
20260906040828 76 296 1.7 2.6 0.00 0.00 0.00 92 1012.6
20260906040324 77 155 1.7 1.7 0.00 0.00 0.00 92 1012.6
20260906035819 77 278 0.0 0.9 0.00 0.06 0.06 92 1012.5
20260906035314 77 196 0.9 1.7 0.00 0.06 0.06 92 1012.6
20260906034810 77 282 0.0 0.0 0.00 0.06 0.06 91 1012.5
20260906034309 77 80 2.6 2.6 0.00 0.06 0.06 91 1012.7
20260906033805 77 81 1.7 1.7 0.00 0.06 0.06 91 1012.5
20260906033304 78 67 1.7 2.6 0.00 0.06 0.06 91 1012.5
20260906032801 78 52 1.7 1.7 0.00 0.06 0.06 91 1012.4
20260906032256 77 81 4.3 6.1 0.00 0.06 0.06 92 1012.5
20260906031751 77 342 0.9 0.9 0.00 0.06 0.06 92 1012.3
20260906031247 77 270 0.9 0.9 0.00 0.06 0.06 92 1012.3
20260906030746 78 279 0.0 0.0 0.00 0.06 0.06 92 1012.3
20260906030242 77 303 0.9 0.9 0.00 0.06 0.06 92 1012.5
20260906025741 77 286 0.0 0.9 0.00 0.06 0.06 92 1012.5
20260906025235 78 279 0.0 0.9 0.00 0.06 0.06 92 1012.3
20260906024734 78 282 0.0 0.0 0.00 0.06 0.06 91 1012.6
20260906024234 78 292 0.9 0.9 0.00 0.06 0.06 91 1012.1
20260906023730 78 298 0.0 0.9 0.00 0.06 0.06 91 1012.3
20260906023225 78 282 0.0 0.9 0.00 0.06 0.06 90 1012.2
20260906022720 78 289 0.9 0.9 0.00 0.06 0.06 90 1012.1
20260906022216 78 278 0.9 0.9 0.00 0.06 0.06 90 1012.1
20260906021712 78 310 0.9 0.9 0.00 0.06 0.06 91 1012.0
20260906021210 79 297 0.9 0.9 0.00 0.06 0.06 91 1012.0
20260906020705 79 285 0.9 0.9 0.00 0.06 0.06 90 1011.7
20260906020200 79 286 0.0 0.0 0.00 0.06 0.06 89 1011.8
20260906015654 80 283 0.0 0.9 0.00 0.06 0.06 89 1011.6
20260906015152 80 293 0.9 0.9 0.00 0.06 0.06 89 1011.9
20260906014647 80 287 0.0 0.9 0.00 0.06 0.06 89 1011.5
20260906014143 79 277 0.9 0.9 0.00 0.06 0.06 89 1011.5
20260906013638 79 278 0.0 0.0 0.00 0.06 0.06 90 1011.5
20260906013133 79 281 0.0 0.0 0.00 0.06 0.06 89 1011.6
20260906012628 80 283 0.0 0.9 0.00 0.06 0.06 89 1011.5
20260906012123 80 286 0.0 0.9 0.00 0.06 0.06 88 1011.3
20260906011618 80 282 0.0 0.9 0.00 0.06 0.06 88 1011.3
20260906011113 80 280 0.0 0.0 0.00 0.06 0.06 88 1011.4
20260906010608 80 290 0.9 0.9 0.00 0.06 0.06 88 1011.2
20260906010104 80 295 0.9 0.9 0.00 0.06 0.06 88 1011.1
20260906005604 80 286 0.0 0.9 0.00 0.06 0.06 88 1011.2
20260906005102 80 282 0.0 0.0 0.00 0.06 0.06 89 1011.0
20260906004556 80 288 0.9 0.9 0.00 0.06 0.06 89 1010.7
20260906004052 80 280 0.0 0.0 0.00 0.06 0.06 90 1010.6
20260906003546 80 284 0.0 0.9 0.00 0.06 0.06 89 1010.7
20260906003042 80 283 0.9 0.9 0.00 0.06 0.06 89 1010.7
20260906002537 80 285 0.0 0.9 0.00 0.06 0.06 89 1010.8
20260906002032 80 292 0.0 0.9 0.00 0.06 0.06 89 1010.8
20260906001527 80 286 0.0 0.9 0.00 0.06 0.06 88 1010.5
20260906001021 80 280 0.0 0.0 0.00 0.06 0.06 87 1010.7
20260906000518 80 279 0.0 0.0 0.00 0.06 0.06 87 1010.9
20260906000012 80 281 0.0 0.9 0.00 0.06 0.06 88 1010.8
20260905235506 80 278 0.0 0.0 0.00 0.06 0.06 89 1010.7
20260905235001 80 279 0.0 0.0 0.00 0.06 0.06 88 1010.7
20260905234456 80 279 0.0 0.0 0.00 0.06 0.06 87 1010.7
20260905233950 80 279 0.0 0.0 0.00 0.06 0.06 88 1010.7
20260905233446 80 279 0.0 0.0 0.00 0.06 0.06 88 1010.6
20260905232945 80 279 0.0 0.0 0.00 0.06 0.06 88 1010.6
20260905232441 80 279 0.0 0.0 0.00 0.06 0.06 87 1010.9
20260905231937 81 279 0.0 0.0 0.00 0.06 0.06 86 1010.9
20260905231432 80 279 0.0 0.0 0.00 0.06 0.06 87 1010.8
20260905230929 80 279 0.0 0.0 0.00 0.06 0.06 89 1010.5
20260905230427 79 279 0.0 0.0 0.00 0.06 0.06 91 1010.2
20260905225925 79 279 0.0 0.0 0.00 0.06 0.06 92 1010.3
20260905225420 79 279 0.0 0.0 0.00 0.06 0.06 92 1010.4
20260905224915 79 279 0.0 0.0 0.00 0.06 0.06 91 1010.3
20260905224411 79 279 0.0 0.9 0.00 0.06 0.06 93 1010.5
20260905223905 79 279 0.0 0.0 0.00 0.06 0.06 94 1010.4
20260905223403 79 270 0.0 0.0 0.00 0.06 0.06 93 1010.5
20260905222858 80 278 0.0 0.9 0.00 0.06 0.06 96 1010.3
20260905222356 78 278 0.0 0.0 0.00 0.06 0.06 96 1010.4
20260905221852 77 289 0.0 0.0 0.00 0.06 0.06 96 1010.6
20260905221349 78 275 0.9 0.9 0.00 0.06 0.06 96 1010.3
20260905220839 78 285 0.0 0.9 0.00 0.06 0.06 97 1010.5
20260905220335 78 278 0.0 0.0 0.00 0.06 0.06 97 1010.6
20260905215834 78 267 1.7 1.7 0.00 0.06 0.06 97 1010.6
20260905215330 78 274 0.9 1.7 0.05 0.06 0.06 96 1010.4
20260905214826 80 293 0.9 0.9 0.24 0.06 0.06 94 1010.5
20260905214321 82 287 0.0 0.0 0.24 0.05 0.05 92 1010.4
20260905213816 85 293 0.9 0.9 0.12 0.02 0.02 88 1010.8
20260905213312 87 275 0.0 0.0 0.07 0.01 0.01 83 1010.6
20260905212807 88 276 0.0 0.9 0.00 0.00 0.00 76 1010.5
20260905212307 89 284 0.0 0.0 0.00 0.00 0.00 74 1010.6
20260905211801 89 284 0.9 0.9 0.00 0.00 0.00 73 1010.2
20260905211255 90 239 0.9 0.9 0.00 0.00 0.00 72 1010.3
20260905210753 90 287 1.7 1.7 0.00 0.00 0.00 70 1010.4
20260905210247 91 276 0.0 0.9 0.00 0.00 0.00 69 1010.4
20260905205746 92 285 0.9 1.7 0.00 0.00 0.00 68 1010.6
20260905205241 91 284 0.9 0.9 0.00 0.00 0.00 68 1010.2
20260905204740 92 272 0.9 0.9 0.00 0.00 0.00 67 1010.4
20260905204236 95 285 0.9 0.9 0.00 0.00 0.00 64 1010.4
20260905203735 95 290 0.9 0.9 0.00 0.00 0.00 63 1010.4
20260905203231 95 285 2.6 2.6 0.00 0.00 0.00 63 1010.7
20260905202726 95 297 0.9 0.9 0.00 0.00 0.00 63 1010.6
20260905202221 94 256 2.6 2.6 0.00 0.00 0.00 62 1010.8
20260905201717 94 353 3.5 6.1 0.00 0.00 0.00 63 1010.9
20260905201217 96 285 1.7 1.7 0.00 0.00 0.00 62 1010.9
20260905200712 96 268 0.9 0.9 0.00 0.00 0.00 60 1010.7
20260905200208 95 271 0.9 0.9 0.00 0.00 0.00 63 1010.9
20260905195200 95 272 0.0 0.9 0.00 0.00 0.00 63 1010.8
20260905194650 94 271 0.9 0.9 0.00 0.00 0.00 64 1011.1
20260905194149 93 298 0.9 0.9 0.00 0.00 0.00 64 1011.0
20260905193638 93 275 0.9 0.9 0.00 0.00 0.00 65 1011.1
20260905193133 93 290 1.7 1.7 0.00 0.00 0.00 66 1011.1
20260905192629 94 306 2.6 2.6 0.00 0.00 0.00 63 1011.0
20260905192125 94 197 1.7 1.7 0.00 0.00 0.00 61 1011.3
20260905191625 93 269 0.9 1.7 0.00 0.00 0.00 63 1011.1
20260905191123 93 284 1.7 2.6 0.00 0.00 0.00 64 1011.4
20260905190621 94 265 0.0 0.9 0.00 0.00 0.00 64 1011.4
20260905190121 93 271 0.9 0.9 0.00 0.00 0.00 62 1011.7
20260905185620 93 264 2.6 2.6 0.00 0.00 0.00 63 1011.6
20260905185114 93 272 1.7 2.6 0.00 0.00 0.00 62 1011.5
20260905184609 93 211 0.9 1.7 0.00 0.00 0.00 61 1011.8
20260905184108 93 280 0.0 0.9 0.00 0.00 0.00 61 1011.9
20260905183607 93 203 1.7 1.7 0.00 0.00 0.00 63 1012.1
20260905183103 94 256 0.9 1.7 0.00 0.00 0.00 61 1012.2
20260905182602 93 231 0.9 1.7 0.00 0.00 0.00 62 1012.0
20260905182056 93 307 1.7 2.6 0.00 0.00 0.00 64 1012.2
20260905181551 93 251 0.0 0.9 0.00 0.00 0.00 62 1012.1
20260905181050 91 298 0.9 0.9 0.00 0.00 0.00 64 1012.2
20260905180545 91 304 1.7 2.6 0.00 0.00 0.00 65 1012.2
20260905180041 91 254 0.9 0.9 0.00 0.00 0.00 65 1012.5
20260905175539 90 288 1.7 2.6 0.00 0.00 0.00 64 1012.4
20260905175035 89 274 0.9 1.7 0.00 0.00 0.00 64 1012.4
20260905174531 91 274 0.9 0.9 0.00 0.00 0.00 64 1012.5
20260905174026 90 263 0.9 1.7 0.00 0.00 0.00 65 1012.5
20260905173523 89 261 0.9 1.7 0.00 0.00 0.00 63 1012.5
20260905173018 90 306 2.6 2.6 0.00 0.00 0.00 64 1012.4
20260905172516 89 262 1.7 1.7 0.00 0.00 0.00 63 1012.5
20260905172012 90 271 0.9 0.9 0.00 0.00 0.00 63 1012.6
20260905171508 90 275 0.0 0.9 0.00 0.00 0.00 62 1012.7
20260905171003 90 266 0.0 0.9 0.00 0.00 0.00 64 1012.7
20260905170500 89 75 0.9 0.9 0.00 0.00 0.00 64 1012.8
20260905165954 89 217 0.9 1.7 0.00 0.00 0.00 63 1012.9
20260905165449 89 263 0.9 1.7 0.00 0.00 0.00 66 1013.1
20260905164944 88 295 0.9 0.9 0.00 0.00 0.00 65 1013.1
20260905164444 87 256 1.7 1.7 0.00 0.00 0.00 66 1013.1
20260905163939 88 281 1.7 1.7 0.00 0.00 0.00 63 1013.2
20260905163436 88 141 1.7 1.7 0.00 0.00 0.00 64 1013.1
20260905162931 87 265 0.9 0.9 0.00 0.00 0.00 65 1013.2
20260905162426 87 283 2.6 4.3 0.00 0.00 0.00 63 1013.4
20260905161921 88 278 2.6 2.6 0.00 0.00 0.00 63 1013.3
20260905161420 86 255 0.0 0.0 0.00 0.00 0.00 65 1013.0
20260905160918 87 265 2.6 2.6 0.00 0.00 0.00 65 1013.0
20260905160412 86 267 0.9 0.9 0.00 0.00 0.00 65 1013.1
20260905155906 87 286 1.7 1.7 0.00 0.00 0.00 66 1013.1
20260905155401 86 338 0.9 1.7 0.00 0.00 0.00 66 1013.0
20260905154900 86 352 0.9 1.7 0.00 0.00 0.00 66 1013.2
20260905154356 86 182 0.9 2.6 0.00 0.00 0.00 67 1013.3
20260905153851 85 261 0.0 0.9 0.00 0.00 0.00 66 1012.9
20260905153347 86 116 2.6 4.3 0.00 0.00 0.00 68 1013.2
20260905152847 85 283 0.9 1.7 0.00 0.00 0.00 67 1013.3
20260905152346 85 268 0.9 0.9 0.00 0.00 0.00 69 1013.2
20260905151841 85 264 0.9 1.7 0.00 0.00 0.00 68 1013.5
20260905151337 84 210 0.0 0.9 0.00 0.00 0.00 69 1013.4
20260905150837 84 248 0.9 1.7 0.00 0.00 0.00 70 1013.5
20260905150331 83 17 0.0 0.9 0.00 0.00 0.00 71 1013.4
20260905145828 82 164 0.9 1.7 0.00 0.00 0.00 71 1013.4
20260905145323 82 315 1.7 2.6 0.00 0.00 0.00 71 1013.4
20260905144822 82 220 2.6 2.6 0.00 0.00 0.00 72 1013.5
20260905144318 82 271 0.9 0.9 0.00 0.00 0.00 73 1013.7
20260905143816 81 86 4.3 5.2 0.00 0.00 0.00 72 1013.4
20260905143311 81 53 2.6 2.6 0.00 0.00 0.00 72 1013.5
20260905142810 80 253 0.9 0.9 0.00 0.00 0.00 74 1013.8
20260905142306 80 143 1.7 1.7 0.00 0.00 0.00 75 1013.6
20260905141800 81 74 1.7 2.6 0.00 0.00 0.00 73 1013.8
20260905141255 79 266 0.9 0.9 0.00 0.00 0.00 75 1013.6
20260905140751 79 82 3.5 5.2 0.00 0.00 0.00 76 1013.7
20260905140251 80 208 1.7 2.6 0.00 0.00 0.00 73 1013.8
20260905135749 79 333 0.9 1.7 0.00 0.00 0.00 76 1013.8
20260905135245 78 83 2.6 4.3 0.00 0.00 0.00 76 1013.6
20260905134744 78 321 1.7 1.7 0.00 0.00 0.00 76 1013.7
20260905134239 77 150 2.6 2.6 0.00 0.00 0.00 77 1013.6
20260905133734 78 171 4.3 6.1 0.00 0.00 0.00 77 1013.6
20260905133229 77 37 4.3 6.1 0.00 0.00 0.00 77 1013.9
20260905132728 77 301 2.6 5.2 0.00 0.00 0.00 78 1013.4
20260905132224 77 92 2.6 4.3 0.00 0.00 0.00 78 1013.7
20260905131718 77 255 1.7 1.7 0.00 0.00 0.00 79 1013.8
20260905131214 76 206 2.6 2.6 0.00 0.00 0.00 79 1013.6
20260905130708 76 269 4.3 6.1 0.00 0.00 0.00 81 1013.9
20260905130208 77 146 3.5 5.2 0.00 0.00 0.00 80 1013.8
20260905125703 76 215 0.9 0.9 0.00 0.00 0.00 81 1013.9
20260905125158 76 189 0.0 0.9 0.00 0.00 0.00 81 1013.9
20260905124654 76 123 1.7 1.7 0.00 0.00 0.00 82 1013.8
20260905124150 76 154 4.3 7.0 0.00 0.00 0.00 81 1014.0
20260905123645 75 38 2.6 2.6 0.00 0.00 0.00 83 1013.9
20260905123142 75 32 2.6 2.6 0.00 0.00 0.00 83 1014.0
20260905122641 75 58 3.5 5.2 0.00 0.00 0.00 83 1013.7
20260905122136 75 75 2.6 4.3 0.00 0.00 0.00 83 1013.6
20260905121631 75 78 3.5 4.3 0.00 0.00 0.00 84 1013.9
20260905121126 76 153 2.6 4.3 0.00 0.00 0.00 83 1013.7
20260905120625 76 136 1.7 2.6 0.00 0.00 0.00 84 1013.4
20260905120121 76 273 0.9 2.6 0.00 0.00 0.00 85 1013.6
20260905115620 76 84 3.5 4.3 0.00 0.00 0.00 86 1013.6
20260905115115 76 104 2.6 2.6 0.00 0.00 0.00 89 1013.5
20260905114614 76 159 1.7 1.7 0.00 0.00 0.00 89 1013.4
20260905114113 77 94 2.6 5.2 0.00 0.00 0.00 89 1013.2
20260905113608 77 63 4.3 6.1 0.00 0.00 0.00 88 1013.2
20260905113104 77 238 2.6 4.3 0.00 0.00 0.00 93 1013.0
20260905112558 76 59 2.6 2.6 0.00 0.00 0.00 96 1012.7
20260905112054 75 87 1.7 2.6 0.00 0.00 0.00 98 1012.8
20260905111549 75 307 0.0 0.0 0.00 0.00 0.00 98 1012.3
20260905111048 75 278 0.0 0.0 0.00 0.00 0.00 97 1012.1
20260905110547 75 282 0.0 0.0 0.00 0.00 0.00 97 1012.1
20260905110043 75 282 0.0 0.0 0.00 0.00 0.00 97 1011.9
20260905105542 75 281 0.0 0.0 0.00 0.00 0.00 97 1012.0
20260905105042 75 275 0.0 0.0 0.00 0.00 0.00 97 1012.0
20260905104538 75 270 0.0 0.0 0.00 0.00 0.00 97 1012.3
20260905104037 75 272 0.0 0.0 0.00 0.00 0.00 97 1012.0
20260905103533 75 277 0.0 0.0 0.00 0.00 0.00 97 1012.3
20260905103029 75 279 0.0 0.0 0.00 0.00 0.00 97 1012.1
20260905102524 75 279 0.0 0.0 0.00 0.00 0.00 97 1011.8
20260905102021 75 279 0.0 0.0 0.00 0.00 0.00 97 1011.9
20260905101519 75 277 0.0 0.0 0.00 0.00 0.00 97 1011.8
20260905101017 75 276 0.0 0.0 0.00 0.00 0.00 97 1011.9
20260905100514 75 277 0.0 0.0 0.00 0.00 0.00 98 1011.7
20260905100008 75 276 0.0 0.0 0.00 0.00 0.00 98 1011.9
20260905095503 75 275 0.0 0.0 0.00 0.00 0.00 98 1011.7
20260905094957 75 278 0.0 0.0 0.00 0.00 0.00 98 1011.9
20260905094453 75 280 0.0 0.0 0.00 0.00 0.00 98 1011.9
20260905093951 75 277 0.0 0.0 0.00 0.00 0.00 98 1012.0
20260905093447 75 278 0.0 0.0 0.00 0.00 0.00 97 1011.8
20260905092943 76 278 0.0 0.0 0.00 0.00 0.00 97 1011.8
20260905092438 76 278 0.0 0.0 0.00 0.00 0.00 97 1011.9
20260905091932 76 278 0.0 0.0 0.00 0.00 0.00 97 1012.0
20260905091427 75 274 0.0 0.0 0.00 0.00 0.00 97 1012.0
20260905090926 75 274 0.0 0.0 0.00 0.00 0.00 97 1012.1
20260905090422 75 274 0.0 0.0 0.00 0.00 0.00 97 1011.9
20260905085920 76 274 0.0 0.0 0.00 0.00 0.00 97 1012.0
20260905085415 76 274 0.0 0.0 0.00 0.00 0.00 97 1011.9
20260905084911 75 274 0.0 0.0 0.00 0.00 0.00 97 1011.7
20260905084410 76 274 0.0 0.0 0.00 0.00 0.00 97 1011.8
20260905083905 76 276 0.0 0.0 0.00 0.00 0.00 97 1011.7
20260905083401 76 276 0.0 0.0 0.00 0.00 0.00 97 1011.9
20260905082856 76 279 0.0 0.0 0.00 0.00 0.00 97 1011.8
20260905082352 76 278 0.0 0.0 0.00 0.00 0.00 97 1011.8
20260905081847 76 282 0.0 0.0 0.00 0.00 0.00 97 1011.5
20260905081342 76 280 0.0 0.0 0.00 0.00 0.00 97 1011.6
20260905080840 76 277 0.0 0.0 0.00 0.00 0.00 97 1011.2
20260905080335 76 279 0.0 0.0 0.00 0.00 0.00 97 1011.5